Location: Ajisawe
(8.4333°N, 4.3833°E)
Time: 16:09:38
(UTC+00:00)

Vanguard 2 Rocket - All Passes

Search period start: 19 April 2021 00:00
Search period end: 29 April 2021 00:00
Orbit: 553 x 3326 km, 32.9° (Epoch: 18 April)

Date Brightness Start Highest point End Pass type
(mag) Time Alt. Az. Time Alt. Az. Time Alt. Az.
19 Apr - 08:48:57 10° SSW 08:58:39 42° SE 09:14:11 10° ENE daylight
19 Apr - 11:01:21 10° WSW 11:14:58 77° NNW 11:35:20 10° NE daylight
19 Apr - 13:18:57 10° W 13:35:25 41° NNW 13:53:46 10° NE daylight
19 Apr - 15:41:59 10° WNW 15:58:38 30° N 16:12:27 10° NE daylight
19 Apr - 18:04:31 10° NW 18:20:26 37° NNE 18:30:42 10° E visible
19 Apr - 20:24:02 10° NW 20:37:54 81° NNE 20:45:22 10° ESE visible
19 Apr - 22:44:53 10° W 22:51:02 21° SW 22:55:26 10° S visible
20 Apr - 07:50:55 10° S 07:58:19 25° SE 08:09:16 10° E daylight
20 Apr - 10:01:26 10° SW 10:13:09 83° SE 10:32:25 10° ENE daylight
20 Apr - 12:16:55 10° W 12:32:06 49° NNW 12:51:35 10° NE daylight
20 Apr - 14:38:02 10° WNW 14:54:45 32° N 15:10:29 10° NE daylight
20 Apr - 17:01:04 10° NW 17:17:47 34° N 17:29:42 10° ENE daylight
20 Apr - 19:21:16 10° NW 19:37:02 61° NNE 19:45:54 10° ESE visible
20 Apr - 21:41:15 10° WNW 21:51:37 40° SW 21:57:46 10° SSE visible
21 Apr - 06:54:56 10° SSE 06:58:16 12° SE 07:02:11 10° ESE daylight
21 Apr - 09:02:11 10° SW 09:12:05 61° SE 09:29:02 10° ENE daylight
21 Apr - 11:15:49 10° WSW 11:29:17 59° NNW 11:49:04 10° NE daylight
21 Apr - 13:34:45 10° WNW 13:50:50 35° NNW 14:08:11 10° NE daylight
21 Apr - 15:57:26 10° NW 16:14:28 32° N 16:28:05 10° ENE daylight
21 Apr - 18:18:22 10° NW 18:35:26 49° NNE 18:45:52 10° E visible
21 Apr - 20:38:04 10° WNW 20:51:47 68° SW 20:59:17 10° SE visible
22 Apr - 08:03:33 10° SSW 08:11:41 39° SE 08:25:07 10° ENE daylight
22 Apr - 10:15:30 10° WSW 10:27:09 74° NNW 10:46:18 10° NE daylight
22 Apr - 12:32:19 10° W 12:47:11 40° NNW 13:05:38 10° NE daylight
22 Apr - 14:53:52 10° NW 15:10:37 31° N 15:25:53 10° ENE daylight
22 Apr - 17:15:18 10° NW 17:33:07 41° NNE 17:45:13 10° E daylight
22 Apr - 19:35:02 10° NW 19:51:17 86° NE 20:00:13 10° ESE visible
22 Apr - 21:56:48 10° W 22:05:00 24° SW 22:10:31 10° S visible
23 Apr - 07:05:49 10° S 07:11:47 22° SE 07:20:27 10° E daylight
23 Apr - 09:15:51 10° SW 09:25:45 86° SE 09:43:16 10° ENE daylight
23 Apr - 11:30:47 10° W 11:44:03 46° NNW 12:02:53 10° NE daylight
23 Apr - 13:50:40 10° WNW 14:06:35 32° N 14:23:11 10° NE daylight
23 Apr - 16:12:12 10° NW 16:30:04 36° NNE 16:43:49 10° ENE daylight
23 Apr - 18:32:04 10° NW 18:50:02 66° NNE 19:00:35 10° ESE visible
23 Apr - 20:52:41 10° WNW 21:05:17 43° SW 21:12:40 10° SSE visible
24 Apr - 08:16:48 10° SW 08:25:07 60° SE 08:39:58 10° ENE daylight
24 Apr - 10:30:03 10° W 10:41:34 55° NNW 11:00:02 10° NE daylight
24 Apr - 12:48:04 10° WNW 13:02:41 34° N 13:20:10 10° NE daylight
24 Apr - 15:09:09 10° NW 15:26:27 33° N 15:41:40 10° ENE daylight
24 Apr - 17:29:10 10° NW 17:48:02 53° NNE 18:00:19 10° E daylight
24 Apr - 19:49:07 10° WNW 20:05:05 67° SW 20:14:03 10° SE visible
24 Apr - 22:14:24 10° WSW 22:18:26 13° SW 22:21:47 10° SSW visible
25 Apr - 07:18:22 10° SSW 07:25:08 37° SE 07:36:21 10° ENE daylight
25 Apr - 09:30:00 10° WSW 09:39:50 70° NNW 09:57:06 10° NE daylight
25 Apr - 11:46:12 10° WNW 11:59:14 37° NNW 12:17:00 10° NE daylight
25 Apr - 14:06:19 10° NW 14:22:28 32° N 14:38:47 10° ENE daylight
25 Apr - 16:26:23 10° NW 16:45:20 45° NNE 16:59:20 10° E daylight
25 Apr - 18:45:52 10° NW 19:04:12 89° NNE 19:14:49 10° SE visible
25 Apr - 21:08:14 10° W 21:18:38 27° SW 21:25:28 10° S visible
26 Apr - 06:20:53 10° S 06:25:34 19° SE 06:32:03 10° E daylight
26 Apr - 08:30:33 10° SW 08:38:51 89° SE 08:54:09 10° ENE daylight
26 Apr - 10:45:04 10° W 10:56:26 42° NNW 11:13:50 10° NE daylight
26 Apr - 13:03:51 10° WNW 13:18:28 31° N 13:35:20 10° NE daylight
26 Apr - 15:23:47 10° NW 15:42:01 39° NNE 15:57:29 10° E daylight
26 Apr - 17:42:55 10° NW 18:02:33 70° NNE 18:14:58 10° ESE visible
26 Apr - 20:03:46 10° WNW 20:18:34 45° SW 20:27:25 10° SSE visible
27 Apr - 07:31:38 10° SW 07:38:36 60° SE 07:51:09 10° ENE daylight
27 Apr - 09:44:37 10° W 09:54:22 50° NNW 10:10:48 10° NE daylight
27 Apr - 12:01:53 10° WNW 12:14:48 32° N 12:31:38 10° NE daylight
27 Apr - 14:21:24 10° NW 14:38:15 34° NNE 14:54:44 10° ENE daylight
27 Apr - 16:40:15 10° NW 17:00:10 57° NNE 17:14:24 10° ESE daylight
27 Apr - 18:59:59 10° WNW 19:17:56 67° SW 19:28:36 10° SE visible
27 Apr - 21:25:28 10° WSW 21:32:06 16° SW 21:37:14 10° SSW visible
28 Apr - 06:33:21 10° SSW 06:38:57 34° SE 06:47:59 10° ENE daylight
28 Apr - 08:44:46 10° WSW 08:53:01 64° NNW 09:07:57 10° NE daylight
28 Apr - 11:00:30 10° WNW 11:11:42 34° NNW 11:27:57 10° NE daylight
28 Apr - 13:19:18 10° NW 13:34:20 31° N 13:51:08 10° ENE daylight
28 Apr - 15:37:54 10° NW 15:57:10 47° NNE 16:13:01 10° E daylight
28 Apr - 17:56:45 10° NW 18:16:36 88° SW 18:29:08 10° SE visible
28 Apr - 20:19:19 10° W 20:31:56 29° SW 20:40:15 10° SSE visible
